This is the latest recevied weather packets stored in our database for station/object KJ6APE. If no packets are shown the sender has not sent any weather packets the latest 10 day(s).
| Time | Temp. | Humidity | Pressure | Rain* | Wind** | Luminosity | Snow |
|---|---|---|---|---|---|---|---|
| 1778185076 | 25° C | 50% | 1017.7 hPa | 0 mm | - | 1000 W/m² | - |
| 1778184773 | 25° C | 50% | 1017.7 hPa | 0 mm | - | 998 W/m² | - |
| 1778184470 | 25° C | 51% | 1017.7 hPa | 0 mm | - | 995 W/m² | - |
| 1778184165 | 24.44° C | 51% | 1017.9 hPa | 0 mm | - | 994 W/m² | - |
| 1778183862 | 24.44° C | 51% | 1018.1 hPa | 0 mm | - | 989 W/m² | - |
| 1778183559 | 24.44° C | 52% | 1017.9 hPa | 0 mm | - | 987 W/m² | - |
| 1778183257 | 25° C | 50% | 1018.3 hPa | 0 mm | - | 985 W/m² | - |
| 1778182952 | 23.89° C | 49% | 1018 hPa | 0 mm | - | 982 W/m² | - |
| 1778182649 | 23.89° C | 51% | 1018.2 hPa | 0 mm | - | 977 W/m² | - |
| 1778182346 | 23.89° C | 53% | 1018.4 hPa | 0 mm | - | 972 W/m² | - |
| 1778182042 | 23.33° C | 51% | 1018.4 hPa | 0 mm | - | 967 W/m² | - |
| 1778181739 | 22.78° C | 52% | 1018.4 hPa | 0 mm | - | 963 W/m² | - |
| 1778181435 | 22.78° C | 54% | 1018.5 hPa | 0 mm | - | 958 W/m² | - |
| 1778181132 | 22.78° C | 53% | 1018.6 hPa | 0 mm | - | 953 W/m² | - |
| 1778180829 | 22.78° C | 53% | 1018.7 hPa | 0 mm | - | 948 W/m² | - |
| 1778180528 | 22.22° C | 53% | 1018.7 hPa | 0 mm | - | 943 W/m² | - |
| 1778180226 | 22.22° C | 53% | 1018.7 hPa | 0 mm | - | 935 W/m² | - |
| 1778179922 | 22.78° C | 54% | 1018.8 hPa | 0 mm | - | 929 W/m² | - |
| 1778179620 | 22.22° C | 56% | 1018.7 hPa | 0 mm | - | 917 W/m² | - |
| 1778179318 | 21.11° C | 59% | 1018.9 hPa | 0 mm | - | 910 W/m² | - |
| 1778179014 | 21.67° C | 55% | 1019 hPa | 0 mm | - | 899 W/m² | - |
| 1778178711 | 21.67° C | 57% | 1019.1 hPa | 0 mm | - | 888 W/m² | - |
| 1778178408 | 21.67° C | 56% | 1018.9 hPa | 0 mm | - | 879 W/m² | - |
| 1778178103 | 20.56° C | 60% | 1019.2 hPa | 0 mm | - | 867 W/m² | - |
| 1778177800 | 20.56° C | 59% | 1019.2 hPa | 0 mm | - | 857 W/m² | - |
* Rain latest hour (hover to see other rain measurements)
** Current wind speed in m/s (hover to see current wind gust speed)